User: anonymous   Login
Location: ??????
(38.0677°N, 22.9870°E)
Time: 06:12:56
(UTC+00:00)
Language:

Cosmos 1814 Rocket - Orbit

View from above orbital plane
View from above orbital plane
View from above satellite
View from above satellite

Ground track
Ground track

The orbit data is extracted from the following two-line orbital elements,

1 17304U 87006B   24201.95195907  .00000658  00000-0  22324-3 0  9995
2 17304  74.0591   9.0280 0030165 278.8378  80.9361 14.38444911965286
Epoch (UTC): 19 July 2024 22:50:49
Eccentricity: 0.0030165
inclination: 74.0591°
perigee height: 742 km
apogee height: 785 km
right ascension of ascending node: 9.0280°
argument of perigee: 278.8378°
revolutions per day: 14.38444911
mean anomaly at epoch: 80.9361°
orbit number at epoch: 96528

The dashed part of the orbit path shows where the satellite is in the earth's shadow,  

DLR